{"data":{"norad_id":68304,"epoch":"2026-05-25T02:22:25.448160Z","epoch_age_seconds":59821,"freshness":"FRESH","line1":"1 68304U 26057L   26145.09890565  .00195459  00000+0  12782-2 0  9995","line2":"2 68304  97.2851 271.3439 0001192  61.8427 298.2958 15.75251158 10313","mean_motion":15.75251158,"eccentricity":0.0001192,"inclination_deg":97.2851,"raan_deg":271.3439,"arg_perigee_deg":61.8427,"mean_anomaly_deg":298.2958,"bstar":0.0012782,"rev_number":1031,"period_min":91.413994059733,"perigee_km":343.11530832052,"apogee_km":344.7178458933,"semimajor_km":6722.0535771069,"source":"CELESTRAK","updated_at":"2026-05-25T13:38:21.917659Z"}}